www.pogodaiklimat.ru

Погода и климат >> Архив погоды >> Индонезия >> Чилачап


ПОГОДА в Чилачапе

  • Прогноз погоды в Чилачапе
  • Монитор погоды в Чилачапе

АРХИВ ПОГОДЫ в Чилачапе

Время (UTC), дата Ветер
(напр.,м/с)
 
Видим.   Явления Облачность Т
(С)
Тd
(С)
f
(%)
Тe
(С)
Тes
(С)
Комфортность P
(гПа)
Po
(гПа)
Тmin
(С)
Tmax
(С)
R
(мм)
R24
(мм)
S
(см)
06 19.06 Ю 3 10 км 3/1 600 м
[Cu med, cong As trans Ci fib]
+28.5 +21.3 65 +36 +46 очень
душно
1012.1 1011.3
09 19.06 ЮВ 3 10 км 3/1 600 м
[Cu hum Ac trans Ci fib]
+27.0 +21.8 73 +35 +36 очень
душно
1011.0 1010.3
12 19.06 В 2 6000 м 3/3 600 м
[Cu hum As trans Ci fib]
+24.8 +22.3 86 +32 +32 очень
душно
1012.2 1011.5 +28.6
15 19.06 В 2 6000 м 5/3 600 м
[Sc Ac trans]
+24.0 +22.2 90 +31 +31 очень
душно
1013.4 1012.6
18 19.06 штиль 0 6000 м 5/4 600 м
[Sc Ac trans]
+22.4 +20.7 90 +29 +29 очень
душно
1012.9 1012.1
21 19.06 штиль 0 6000 м 6/5 600 м
[Cu Sc As op]
+21.4 +20.8 96 +27 +27 душно 1012.6 1011.9
00 20.06 штиль 0 7000 м 6/4 600 м
[Cu Sc As trans Ci fib]
+20.8 +20.2 96 +25 +26 комфорт 1013.9 1013.1 +20.4
03 20.06 В 2 10 км 1/1 600 м
[Sc]
+27.0 +21.0 70 +34 +46 очень
душно
1014.1 1013.4
06 20.06 ЮВ 4 10 км 1/1 600 м
[Sc]
+28.0 +21.2 67 +35 +45 очень
душно
1012.1 1011.4
09 20.06 ЮВ 3 9000 м 1/1 600 м
[Sc]
+26.8 +22.0 75 +35 +37 очень
душно
1010.8 1010.1
12 20.06 ЮВ 2 7000 м 8/6 600 м
[Sc As trans]
+24.6 +21.9 85 +32 +32 очень
душно
1011.8 1011.1 +28.0
15 20.06 В 1 7000 м 8/6 600 м
[Sc As trans]
+24.0 +22.3 90 +31 +31 очень
душно
1012.5 1011.8
18 20.06 С 2 7000 м 4/4 600 м
[Sc Ac As]
+22.0 +20.7 92 +28 +28 душно 1012.4 1011.7
21 20.06 З 2 7000 м 4/4 600 м
[Sc Ac As]
+21.0 +20.6 98 +27 +27 душно 1012.2 1011.5
00 21.06 СЗ 1 8000 м 1/1 600 м
[Sc]
+20.8 +20.1 96 +27 +28 душно 1012.8 1012.1 +20.5
03 21.06 В 2 11 км 3/3 600 м
[Cu med, cong As trans Ci fib]
+27.0 +20.1 66 +33 +43 очень
душно
1012.9 1012.2
06 21.06 В 2 12 км ясно +27.6 +20.9 67 +35 +49 очень
душно
1010.8 1010.1
09 21.06 Ю 3 10 км 1/1 540 м
[Cu med, cong]
+27.2 +20.6 67 +34 +36 очень
душно
1010.1 1009.4
12 21.06 ЮВ 1 7000 м 1/1 570 м
[Cu hum Ci fib]
+24.4 +21.8 85 +31 +31 очень
душно
1010.9 1010.2 +28.8
15 21.06 штиль 0 7000 м 1/1 600 м
[Sc diur, vesp Ci fib]
+23.6 +21.9 90 +30 +30 очень
душно
1012.3 1011.6
18 21.06 штиль 0 6000 м 3/3 600 м
[Sc Ci fib]
+22.2 +21.3 95 +29 +29 очень
душно
1011.5 1010.8
21 21.06 штиль 0 6000 м 6/5 600 м
[Sc As trans Ci fib]
+20.8 +19.9 95 +25 +25 комфорт 1010.6 1009.9
00 22.06 З 2 10 км 3/1 600 м
[Cu med, cong As trans Ci fib]
+20.8 +19.9 95 +26 +27 душно 1011.5 1010.7 +20.6
03 22.06 ЮВ 2 10 км 1/1 600 м
[Cu med, cong As trans Ci fib]
+26.6 +21.2 72 +34 +45 очень
душно
1011.6 1010.9
06 22.06 ЮВ 3 10 км 3/1 600 м
[Cu med, cong Ci fib]
+27.4 +22.0 72 +35 +47 очень
душно
1010.2 1009.5
09 22.06 В 2 10 км 3/1 600 м
[Cu med, cong Ci fib]
+26.6 +22.4 78 +35 +37 очень
душно
1009.4 1008.7
12 22.06 ЮВ 2 6000 м 4/3 600 м
[Cu med, cong Ci fib]
+24.8 +22.5 87 +32 +32 очень
душно
1010.5 1009.8 +28.0
15 22.06 ЮВ 2 6000 м 3/1 600 м
[Cu med, cong As trans Ci fib]
+24.6 +22.3 87 +32 +32 очень
душно
1011.5 1010.8
18 22.06 штиль 0 6000 м 4/4 600 м
[Sc Ci fib]
+22.9 +21.6 92 +31 +31 очень
душно
1011.4 1010.7
21 22.06 штиль 0 6000 м 5/3 600 м
[Sc As trans Ci fib]
+22.4 +21.2 93 +29 +29 очень
душно
1011.0 1010.3
00 23.06 штиль 0 7000 м 9/5 600 м
[Cu Sc Ac As Ci fib]
+22.2 +21.3 95 +29 +30 очень
душно
1012.4 1011.7 +20.8
03 23.06 штиль 0 9000 м 8/3 570 м
[Cu Sc Ac As Ci fib]
+26.8 +21.4 72 +34 +42 очень
душно
1013.5 1012.7
06 23.06 ЮВ 3 10 км 4/1 500 м
[Cu med, cong Ac As Ci fib]
+27.9 +21.8 69 +36 +46 очень
душно
1011.4 1010.7
09 23.06 ЮВ 3 9000 м 3/1 500 м
[Cu med, cong Ac As Ci fib]
+27.2 +22.7 76 +36 +38 очень
душно
1010.5 1009.8
12 23.06 В 2 8000 м 8/5 600 м
[Sc As trans Ci fib]
+25.0 +23.0 89 +33 +33 очень
душно
1011.8 1011.1 +28.1
15 23.06 В 2 7000 м 6/4 600 м
[Sc As trans Ci fib]
+24.4 +22.4 89 +32 +32 очень
душно
1013.0 1012.3
18 23.06 штиль 0 6000 м 6/4 600 м
[Sc As trans Ci fib]
+23.5 +22.1 92 +30 +30 очень
душно
1012.9 1012.1
21 23.06 штиль 0 6000 м 8/5 570 м
[Sc Ac trans Ci fib]
+22.8 +21.7 94 +31 +31 очень
душно
1012.5 1011.8
00 24.06 штиль 0 7000 м 6/4 570 м
[Sc As trans Ci fib]
+22.0 +21.3 96 +29 +29 очень
душно
1013.8 1013.1 +22.0
03 24.06 ЮВ 3 10 км 1/1 500 м
[Sc As trans]
+27.3 +21.8 72 +35 +46 очень
душно
1014.4 1013.7
06 24.06 ЮВ 3 10 км 4/3 600 м
[Cu hum As trans Ci fib]
+28.0 +22.7 73 +37 +46 очень
душно
1012.5 1011.8
09 24.06 ЮВ 3 10 км 3/1 600 м
[Cu med, cong As trans Ci fib]
+27.0 +22.2 75 +35 +37 очень
душно
1011.5 1010.8
12 24.06 штиль 0 7000 м 3/1 600 м
[Cu med, cong As trans Ci fib]
+24.6 +22.9 90 +33 +33 очень
душно
1012.9 1012.2 +28.4
15 24.06 В 2 7000 м 3/1 600 м
[Cu med, cong As trans Ci fib]
+24.2 +22.5 90 +32 +32 очень
душно
1014.2 1013.5
18 24.06 штиль 0 7000 м 3/1 600 м
[Cu med, cong As trans Ci fib]
+23.2 +21.8 92 +31 +31 очень
душно
1013.8 1013.0
21 24.06 штиль 0 7000 м 3/1 600 м
[Cu med, cong As trans Ci fib]
+22.4 +21.8 96 +30 +30 очень
душно
1013.4 1012.6
00 25.06 СЗ 1 7000 м 8/5 600 м
[Cu Sc Ac As Ci fib]
+22.2 +21.6 96 +29 +30 очень
душно
1015.0 1014.3 +26.0
03 25.06 ЮВ 2 12 км 5/3 600 м
[Cu med, cong As trans Ci fib]
+26.8 +22.3 76 +35 +43 очень
душно
1015.5 1014.8
06 25.06 ЮВ 4 12 км 1/1 600 м
[Sc]
+27.8 +21.6 69 +36 +45 очень
душно
1013.2 1012.5
09 25.06 ЮВ 3 12 км 1/1 600 м
[Sc]
+27.4 +22.9 76 +36 +38 очень
душно
1011.6 1010.9
12 25.06 В 3 6000 м 4/4 600 м
[Sc As trans Ci fib]
+25.3 +23.1 88 +34 +34 очень
душно
1012.9 1012.2 +28.8
15 25.06 В 4 6000 м 1/1 600 м
[Sc As trans]
+24.7 +22.6 88 +32 +32 очень
душно
1014.0 1013.3
18 25.06 ЮВ 5 6000 м 5/4 600 м
[Cu med, cong As trans Ci fib]
+24.6 +22.9 90 +33 +33 очень
душно
1013.5 1012.8
21 25.06 В 1 6000 м 5/4 600 м
[Cu med, cong As trans Ci fib]
+24.3 +22.6 90 +32 +32 очень
душно
1012.7 1012.0
00 26.06 В 2 8000 м 4/1 600 м
[Sc As trans Ci fib]
+24.1 +22.4 90 +31 +32 очень
душно
1013.8 1013.1 +22.0
03 26.06 ЮВ 2 10 км 4/3 570 м
[Cu Sc Ci fib]
+26.8 +22.6 78 +35 +45 очень
душно
1014.2 1013.5

 

Местоположение метеостанции Чилачап (Индонезия): широта -7.73 долгота 109.01 высота над уровнем моря 6 м.

В архиве по умолчанию представлена погода в Чилачапе за последнюю неделю. Архивные данные за месяц целиком и за предыдущие месяцы, начиная с января 2011 года, Вы можете получить, выбрав интересующий диапазон дат из раскрывающегося списка и нажав кнопку "Ввод!".


*Определитесь, кто Вы:
робот инопланетянин человек

Внимание! Время в таблицах - всемирное. Для получения местного времени необходимо прибавить поправку, которая равна 7 ч.

Смотрите также архив погоды в соседних городах и на ближайших метеорологических станциях:

Погода в Тегале (Индонезия) (99 км)
Погода в Сиребоне (Индонезия) (137 км)
Погода в Аэропорту Ахмад Яни (Индонезия) (173 км)
Погода в Семаранге (Индонезия) (176 км)
Погода в Бандунге (Индонезия) (183 км)
Погода в Цитеко (Индонезия) (257 км)
Погода в Джакарте (Индонезия) (296 км)
Погода в Джакарта порту (Индонезия) (298 км)
Погода в Чуруге (Индонезия) (309 км)
Погода в Аэропорту Сукарно-Хатта (Индонезия) (316 км)

Пояснения к столбцам:

Ветер - указаны скорость ветра в м/с - средняя за 10 мин, порывы в срок и между сроками (в фигурных скобках) и направление, откуда дует ветер: С - северный, СВ - северо-восточный, В - восточный, ЮВ - юго-восточный, Ю - южный, ЮЗ - юго-западный, З - западный, СЗ - северо-западный.
Видимость - горизонтальная дальность видимости в метрах или километрах. При видимости от 1 до 10 км при отсутствии осадков обычно наблюдается дымка, при ухудшении видимости до 1 км и менее - туман. В сухую погоду видимость может ухудшаться дымом, пылью или мглою.
Явления - указаны атмосферные явления, наблюдавшиеся в срок или в последний час перед сроком; фигурными скобками обозначены явления, наблюдавшиеся между сроками (за 1-3 часа до срока); квадратными скобками обозначены град или гололедные отложения с указанием их диаметра в мм.
Облачность - указаны через наклонную черту общая и нижняя облачность в баллах и высота нижней границы облаков в метрах; квадратными скобками обозначены формы облаков: Ci - перистые, Cs - перисто-слоистые, Cc - перисто-кучевые, Ac - высококучевые, As - высокослоистые, Sc - слоисто-кучевые, Ns - слоисто-дождевые, Cu - кучевые, Cb - кучево-дождевые. Подробнее классификацию облаков см. в Атласе облаков (PDF).
T - Температура воздуха - температура, измеренная на высоте 2 м над землей.
Td - Температура точки росы - температура, при понижении до которой содержащийся в воздухе водяной пар достигнет насыщения.
f - Относительная влажность воздуха - влажноcть воздуха, измеренная на высоте 2 м над землей.
Te - Эффективная температура - температура, которую ощущает одетый по сезону человек в тени. Характеристика душности погоды. При расчете учитывается влияние влажности воздуха и скорости ветра на теплоощущения человека.
Tes - Эффективная температура на солнце - температура, которую ощущает человек, с поправкой на солнечный нагрев. Характеристика знойности погоды. Зависит от высоты солнца над горизонтом, облачности и скорости ветра. Ночью, в пасмурную погоду, а также при ветре 12 м/с и более поправка равна нулю.
P - Атмосферное давление - приведенное к уровню моря атмосферное давление.
Po - Атмосферное давление - измеренное на уровне метеостанции атмосферное давление.
Tmin - Минимальная температура - минимум температуры воздуха на высоте 2 м над землей.
Tmax - Максимальная температура - максимум температуры воздуха на высоте 2 м над землей.
R - Количество осадков - Количество выпавших осадков за период времени, мм. При наведении курсора мыши на число - период времени, за который выпало указанное количество осадков.
R24 - Количество осадков - Количество выпавших осадков за 24 часа, мм.
S - Снежный покров - Высота снежного покрова, см. При наведении курсора мыши на число - состояние снежного покрова и степень покрытия местности в баллах.